Date String (YYYY-MM-DD hh:mm:ss) UTC,Instrument flags,absolute air pressure of the measurement (hPa),sample flow rate (lpm),inlet stack bypass flow (lpm),air temperature of the measurement (°C),ambient temperature measured by the external sensor (°C),aerosol sample conditioner tube jacket temperature (°C),OPC LED temperature (°C),internal box temperature (°C),relative humidity of the measurement (%),span deviation,mass concentration of particles derived from Lorenz-Mie calculation of OPC scattering (μg/m³),mass concentration of particles derived from Lorenz-Mie calculation of OPC scattering (μg/m³),mass concentration of particles derived from Lorenz-Mie calculation of OPC scattering (μg/m³)
DateTimeUTC,F1_M11,P_M11,Q1_M11,Q2_M11,T1_M11,T2_M11,T3_M11,T4_M11,T5_M11,U1_M11,ZSPAN_M11,X0_M11,X2_M11,X1_M11
2023-11-20 02:00:00,SystemResetWarning,0821.8,5.00,000.00,026.0,024.9,000.0,034.4,027.3,15.7,0000.0,0003.97,0001.26,0001.03
2023-11-20 02:01:00,SystemResetWarning,0821.8,5.00,000.00,026.0,024.9,000.0,034.4,027.3,15.6,0000.0,0003.81,0001.24,0001.03
2023-11-20 02:02:00,SystemResetWarning,0821.8,5.00,000.00,026.0,024.9,000.0,034.4,027.3,15.8,0000.0,0003.56,0001.21,0001.03
2023-11-20 02:03:00,SystemResetWarning,0821.8,5.00,000.00,026.0,024.8,000.0,034.4,027.4,16.1,0000.0,0003.47,0001.21,0001.03
2023-11-20 02:04:00,SystemResetWarning,0821.8,5.00,000.00,026.0,024.8,000.0,034.4,027.4,16.4,0000.0,0003.11,0001.23,0001.03
2023-11-20 02:05:00,SystemResetWarning,0821.8,5.00,000.00,026.0,024.8,000.0,034.4,027.3,16.6,0000.0,0002.73,0001.26,0001.04
2023-11-20 02:06:00,SystemResetWarning,0821.9,5.00,000.00,026.0,024.8,000.0,034.4,027.3,16.7,0000.0,0002.85,0001.27,0001.05
2023-11-20 02:07:00,SystemResetWarning,0821.9,5.00,000.00,026.0,024.7,000.0,034.4,027.3,16.7,0000.0,0002.85,0001.27,0001.04
2023-11-20 02:08:00,SystemResetWarning,0821.8,5.00,000.00,026.0,024.7,000.0,034.4,027.3,16.8,0000.0,0002.93,0001.30,0001.05
2023-11-20 02:09:00,SystemResetWarning,0821.8,5.01,000.00,026.0,024.7,000.0,034.4,027.3,16.9,0000.0,0002.94,0001.31,0001.04
2023-11-20 02:10:00,SystemResetWarning,0821.8,5.00,000.00,026.0,024.7,000.0,034.4,027.3,17.0,0000.0,0002.67,0001.29,0001.05
2023-11-20 02:11:00,SystemResetWarning,0821.8,5.00,000.00,025.9,024.7,000.0,034.4,027.2,17.0,0000.0,0002.71,0001.31,0001.05
2023-11-20 02:12:00,SystemResetWarning,0821.8,5.01,000.00,025.9,024.7,000.0,034.4,027.2,17.0,0000.0,0002.77,0001.33,0001.05
2023-11-20 02:13:00,SystemResetWarning,0821.8,5.00,000.00,025.9,024.7,000.0,034.4,027.2,17.1,0000.0,0002.54,0001.36,0001.05
2023-11-20 02:14:00,SystemResetWarning,0821.8,5.00,000.00,025.9,024.6,000.0,034.3,027.2,17.2,0000.0,0002.53,0001.37,0001.05
2023-11-20 02:15:00,SystemResetWarning,0821.8,5.01,000.00,025.9,024.6,000.0,034.3,027.1,17.2,0000.0,0002.42,0001.35,0001.05
2023-11-20 02:16:00,SystemResetWarning,0821.8,5.00,000.00,025.9,024.6,000.0,034.3,027.1,17.2,0000.0,0002.46,0001.36,0001.05
2023-11-20 02:17:00,SystemResetWarning,0821.9,5.00,000.00,025.8,024.5,000.0,034.3,027.1,17.3,0000.0,0003.37,0001.35,0001.05
2023-11-20 02:18:00,SystemResetWarning,0821.9,5.00,000.00,025.8,024.5,000.0,034.3,027.1,17.4,0000.0,0003.35,0001.34,0001.05
2023-11-20 02:19:00,SystemResetWarning,0822.0,5.00,000.00,025.8,024.5,000.0,034.3,027.1,17.4,0000.0,0003.34,0001.32,0001.04
2023-11-20 02:20:00,SystemResetWarning,0821.9,5.00,000.00,025.8,024.5,000.0,034.3,027.1,17.5,0000.0,0003.23,0001.28,0001.03
2023-11-20 02:21:00,SystemResetWarning,0822.0,4.99,000.00,025.8,024.4,000.0,034.3,027.0,17.6,0000.0,0003.22,0001.27,0001.02
2023-11-20 02:22:00,SystemResetWarning,0821.9,5.00,000.00,025.8,024.4,000.0,034.2,027.1,17.7,0000.0,0003.20,0001.25,0001.00
2023-11-20 02:23:00,SystemResetWarning,0822.0,5.00,000.00,025.7,024.4,000.0,034.2,027.0,17.7,0000.0,0003.28,0001.25,0001.00
2023-11-20 02:24:00,SystemResetWarning,0822.0,5.00,000.00,025.7,024.4,000.0,034.2,027.0,17.7,0000.0,0003.22,0001.23,0000.99
2023-11-20 02:25:00,SystemResetWarning,0822.0,5.00,000.00,025.7,024.4,000.0,034.2,027.0,17.7,0000.0,0003.15,0001.20,0000.99
2023-11-20 02:26:00,SystemResetWarning,0821.9,5.00,000.00,025.7,024.3,000.0,034.2,027.0,17.7,0000.0,0003.11,0001.18,0000.98
2023-11-20 02:27:00,SystemResetWarning,0822.0,5.01,000.00,025.7,024.3,000.0,034.2,027.0,17.7,0000.0,0002.84,0001.15,0000.97
2023-11-20 02:28:00,SystemResetWarning,0822.0,5.00,000.00,025.7,024.3,000.0,034.2,026.9,17.7,0000.0,0001.62,0001.13,0000.96
2023-11-20 02:29:00,SystemResetWarning,0822.0,5.00,000.00,025.7,024.3,000.0,034.1,026.9,17.7,0000.0,0001.59,0001.11,0000.94
2023-11-20 02:30:00,SystemResetWarning,0821.9,5.00,000.00,025.6,024.3,000.0,034.1,026.9,17.7,0000.0,0001.51,0001.08,0000.94
2023-11-20 02:31:00,SystemResetWarning,0822.0,5.01,000.00,025.6,024.2,000.0,034.1,026.9,17.7,0000.0,0001.47,0001.05,0000.93
2023-11-20 02:32:00,SystemResetWarning,0821.9,5.00,000.00,025.6,024.2,000.0,034.1,026.9,17.8,0000.0,0001.46,0001.05,0000.93
2023-11-20 02:33:00,SystemResetWarning,0821.9,5.00,000.00,025.6,024.3,000.0,034.1,026.9,17.8,0000.0,0001.55,0001.06,0000.94
2023-11-20 02:34:00,SystemResetWarning,0822.0,5.01,000.00,025.6,024.2,000.0,034.1,026.9,17.8,0000.0,0001.45,0001.05,0000.94
2023-11-20 02:35:00,SystemResetWarning,0822.0,5.00,000.00,025.6,024.2,000.0,034.1,026.9,17.9,0000.0,0001.50,0001.07,0000.94
2023-11-20 02:36:00,SystemResetWarning,0822.0,5.00,000.00,025.6,024.2,000.0,034.0,026.8,17.9,0000.0,0001.64,0001.11,0000.95
2023-11-20 02:37:00,SystemResetWarning,0822.0,5.01,000.00,025.5,024.2,000.0,034.0,026.8,18.0,0000.0,0001.63,0001.10,0000.96
2023-11-20 02:38:00,SystemResetWarning,0821.9,5.00,000.00,025.5,024.2,000.0,034.0,026.8,17.9,0000.0,0001.64,0001.11,0000.97
2023-11-20 02:39:00,SystemResetWarning,0822.0,5.00,000.00,025.5,024.2,000.0,034.0,026.8,18.0,0000.0,0001.68,0001.13,0000.98
2023-11-20 02:40:00,SystemResetWarning,0822.0,5.00,000.00,025.5,024.2,000.0,034.0,026.8,18.0,0000.0,0001.74,0001.16,0000.99
2023-11-20 02:41:00,SystemResetWarning,0822.0,5.00,000.00,025.5,024.2,000.0,034.0,026.8,18.0,0000.0,0001.85,0001.20,0000.99
2023-11-20 02:42:00,SystemResetWarning,0822.0,5.00,000.00,025.5,024.1,000.0,034.0,026.8,18.0,0000.0,0001.91,0001.23,0001.01
2023-11-20 02:43:00,SystemResetWarning,0822.0,4.99,000.00,025.5,024.1,000.0,033.9,026.7,18.0,0000.0,0002.01,0001.27,0001.01
2023-11-20 02:44:00,SystemResetWarning,0822.0,5.00,000.00,025.5,024.1,000.0,033.9,026.7,18.0,0000.0,0001.94,0001.28,0001.02
2023-11-20 02:45:00,SystemResetWarning,0822.0,5.00,000.00,025.4,024.1,000.0,033.9,026.7,18.0,0000.0,0001.99,0001.29,0001.03
2023-11-20 02:46:00,SystemResetWarning,0822.0,4.99,000.00,025.4,024.1,000.0,033.9,026.7,18.0,0000.0,0002.30,0001.31,0001.04
2023-11-20 02:47:00,SystemResetWarning,0822.1,5.00,000.00,025.4,024.2,000.0,033.9,026.7,18.0,0000.0,0002.59,0001.30,0001.04
2023-11-20 02:48:00,SystemResetWarning,0822.1,5.00,000.00,025.4,024.1,000.0,033.9,026.7,17.9,0000.0,0002.56,0001.30,0001.04
2023-11-20 02:49:00,SystemResetWarning,0822.1,5.01,000.00,025.4,024.1,000.0,033.9,026.7,17.8,0000.0,0002.60,0001.32,0001.04
2023-11-20 02:50:00,SystemResetWarning,0822.1,5.00,000.00,025.4,024.1,000.0,033.9,026.7,17.8,0000.0,0002.55,0001.30,0001.03
2023-11-20 02:51:00,SystemResetWarning,0822.1,5.00,000.00,025.4,024.1,000.0,033.9,026.7,17.7,0000.0,0002.51,0001.28,0001.03
2023-11-20 02:52:00,SystemResetWarning,0822.2,5.00,000.00,025.4,024.1,000.0,033.9,026.7,17.7,0000.0,0002.39,0001.25,0001.03
2023-11-20 02:53:00,SystemResetWarning,0822.2,5.00,000.00,025.4,024.1,000.0,033.8,026.7,17.6,0000.0,0002.41,0001.25,0001.04
2023-11-20 02:54:00,SystemResetWarning,0822.2,5.00,000.00,025.4,024.1,000.0,033.8,026.7,17.6,0000.0,0002.34,0001.23,0001.04
2023-11-20 02:55:00,SystemResetWarning,0822.2,5.00,000.00,025.4,024.1,000.0,033.8,026.7,17.6,0000.0,0002.36,0001.23,0001.04
2023-11-20 02:56:00,SystemResetWarning,0822.3,5.00,000.00,025.4,024.2,000.0,033.8,026.7,17.5,0000.0,0002.33,0001.22,0001.04
2023-11-20 02:57:00,SystemResetWarning,0822.3,5.00,000.00,025.4,024.2,000.0,033.8,026.7,17.5,0000.0,0002.03,0001.22,0001.03
2023-11-20 02:58:00,SystemResetWarning,0822.4,4.99,000.00,025.4,024.2,000.0,033.8,026.7,17.5,0000.0,0001.70,0001.20,0001.01
2023-11-20 02:59:00,SystemResetWarning,0822.4,5.00,000.00,025.4,024.2,000.0,033.8,026.7,17.4,0000.0,0001.75,0001.20,0001.01
